Theta_e
332 332 332 332 331 330 329 328 327 327 326 325 325 324 322 320 318 317 316 314 312 311 310 309 308 308 307 307 306 305 304 304 304 304 303 303 302 302 301 301 301 300 301 299 299 299 299 297 297 297 296 297 296 297 297 297 297 297 297 295 294 293 294 290 290 292 292 293 295 296 298 298 297 295 295 295 295 297 299 295 296 295 296 296 297
332 332 332 332 331 330 329 328 327 326 325 325 324 323 321 319 317 316 315 313 312 311 310 309 308 308 307 306 305 305 305 304 304 303 303 302 301 303 302 301 300 300 300 299 298 300 297 297 297 296 296 296 297 297 296 295 294 294 295 295 294 295 294 292 292 291 291 292 294 295 295 296 295 296 294 294 295 297 295 295 295 295 296 296 296
332 332 331 331 331 330 329 328 327 326 325 324 324 322 320 317 317 315 314 312 312 311 310 309 308 307 307 306 305 305 305 304 303 303 302 302 302 301 302 301 300 299 299 298 298 298 297 298 296 297 298 296 296 296 297 296 295 295 295 296 295 294 295 294 292 291 291 291 292 293 294 295 294 295 295 295 295 295 293 294 294 296 297 296 296
332 332 331 331 330 329 328 328 327 326 325 325 324 322 319 317 316 315 313 312 311 311 310 309 308 307 306 305 305 305 304 304 303 302 303 302 301 301 300 300 299 299 299 298 298 298 297 297 297 298 297 295 295 295 295 295 294 294 294 295 294 295 295 294 294 292 291 292 291 293 295 293 294 295 296 295 294 294 293 294 294 295 295 296 296
332 332 331 330 330 329 328 328 327 326 325 325 324 321 318 316 315 314 313 311 311 310 309 308 307 306 306 305 305 304 304 303 303 302 302 302 301 301 300 299 299 299 299 299 303 298 299 299 298 297 296 295 294 295 295 294 294 294 293 293 294 294 295 295 294 293 290 290 291 291 293 294 294 293 294 293 294 294 294 293 293 294 295 296 297
333 332 331 330 330 329 328 328 327 326 325 325 322 320 318 316 315 314 313 311 310 310 309 308 307 306 306 305 305 304 304 303 303 302 302 301 301 300 300 300 299 299 299 301 300 300 300 299 298 297 296 295 294 294 295 294 294 293 292 292 293 293 292 292 293 291 290 290 291 292 291 293 292 291 293 293 292 292 293 294 295 295 295 295 296
333 332 331 330 329 329 328 328 327 326 325 323 321 320 318 317 315 313 313 312 310 309 308 307 307 306 306 305 305 304 304 303 303 302 301 301 301 300 300 299 299 299 300 301 301 300 299 299 298 297 296 295 294 294 294 294 294 293 293 292 291 291 291 291 291 290 289 289 289 290 291 292 291 291 292 292 292 292 290 291 293 296 296 295 294
332 331 331 330 329 329 328 328 327 326 324 322 320 319 318 317 315 314 313 311 310 309 308 307 306 306 305 305 305 305 304 303 302 301 301 301 301 300 300 300 299 300 300 300 300 299 297 296 295 296 296 295 294 293 294 293 292 291 291 291 291 290 290 290 290 289 289 289 289 288 289 290 290 290 292 290 290 291 293 292 291 293 294 294 294
331 331 330 329 329 329 328 327 327 325 323 321 320 318 317 316 315 314 313 311 311 309 308 307 306 305 305 305 304 305 304 303 302 301 300 300 300 300 300 300 300 300 300 299 297 296 294 294 294 294 300 303 303 300 299 298 292 290 291 291 291 290 289 289 290 289 289 289 288 288 288 289 289 289 289 287 289 289 291 291 291 293 293 293 294
331 330 329 329 329 328 327 326 325 323 321 320 319 318 316 316 314 313 312 311 310 309 308 307 306 305 304 304 304 304 304 304 306 305 304 301 300 301 301 300 300 300 300 296 294 294 293 294 301 307 305 305 304 301 300 301 300 294 292 292 292 290 288 288 290 290 290 287 288 288 288 288 287 288 288 288 290 291 292 292 291 292 291 291 293
331 330 329 329 328 327 326 325 324 322 320 320 319 317 316 315 314 312 311 310 309 308 307 306 305 304 304 303 303 304 304 305 302 298 298 301 302 300 300 299 300 300 298 296 294 294 294 297 299 302 302 301 296 296 296 297 297 298 299 300 299 292 290 289 290 290 292 289 288 288 288 287 289 290 289 291 291 291 291 292 292 291 289 287 288
330 330 329 328 327 326 325 324 323 321 320 319 318 317 315 314 312 311 310 309 308 308 306 306 305 304 304 303 303 303 303 304 297 297 297 298 302 301 300 300 301 300 298 295 295 294 294 295 295 296 292 291 291 290 293 294 292 292 292 293 293 295 297 294 294 290 290 289 288 288 287 288 288 290 290 291 292 293 294 293 291 289 289 287 288
330 329 329 328 326 326 325 323 322 320 319 318 317 316 314 313 312 310 309 309 308 307 306 306 304 304 303 302 302 303 302 300 296 297 297 297 298 301 300 300 301 300 297 295 294 294 293 294 293 294 297 299 299 290 290 292 295 294 294 295 295 293 290 289 293 295 290 291 289 288 288 288 289 291 293 294 293 292 293 293 292 290 288 288 289
329 328 328 327 326 325 324 323 321 320 319 318 317 315 314 312 312 311 310 309 308 307 306 305 304 303 303 302 302 302 302 299 296 296 296 296 296 299 301 301 301 301 299 296 294 293 292 292 293 294 296 300 294 292 292 293 294 295 295 294 293 295 296 293 291 292 295 292 289 289 290 292 292 292 295 295 293 294 292 292 292 290 290 290 292
328 328 327 326 325 324 323 322 321 319 318 317 316 315 314 312 311 311 310 309 308 306 305 304 303 303 303 302 301 301 302 297 295 296 295 296 296 299 302 303 302 302 300 298 297 295 294 294 294 295 297 300 300 295 293 293 294 295 295 295 295 295 295 294 293 292 292 292 290 290 291 291 292 293 294 295 294 294 294 292 292 291 291 291 291
328 327 326 325 324 324 323 321 320 319 317 316 315 314 313 312 311 310 310 309 308 307 306 305 304 303 302 301 301 300 300 295 295 295 295 295 297 303 302 302 301 300 299 298 297 297 295 294 294 296 298 299 302 298 298 298 297 297 297 297 297 297 296 301 297 296 296 293 292 291 291 293 294 295 296 296 295 294 294 292 291 289 289 289 289
326 326 325 324 324 323 322 321 319 318 317 315 315 314 313 312 311 310 309 308 307 306 306 305 305 303 302 301 301 300 298 295 294 295 295 295 299 302 301 301 300 300 300 298 298 298 297 296 296 298 299 299 299 295 295 297 295 295 295 296 297 297 295 295 296 294 293 293 293 293 293 293 293 293 293 293 293 293 290 290 291 289 289 288 289
326 325 325 324 324 323 322 320 318 317 316 315 314 314 313 312 311 310 309 308 307 307 306 306 305 304 302 301 301 299 296 296 295 295 295 297 301 302 301 300 300 300 300 301 300 299 299 304 303 300 300 299 295 293 292 295 293 293 293 294 296 296 294 293 294 294 295 294 293 293 292 292 292 293 294 295 295 295 291 290 291 290 291 288 287
325 324 324 324 324 323 321 320 318 317 316 315 315 314 313 311 310 310 309 308 308 307 307 306 305 303 302 301 304 300 297 296 294 295 296 297 301 301 301 301 300 299 299 300 302 301 301 306 307 303 302 298 293 292 291 293 291 292 294 295 295 293 291 291 291 291 290 291 291 293 293 294 296 295 297 296 295 297 293 292 291 291 289 289 289
326 325 325 324 323 322 321 319 318 317 316 316 315 314 313 311 309 309 308 308 307 306 306 306 304 302 301 301 301 299 297 297 296 295 296 296 298 301 301 301 300 300 300 300 300 300 302 303 304 297 296 294 292 290 290 292 292 293 294 293 293 293 294 291 294 292 291 291 291 292 293 293 294 294 293 293 295 299 294 292 292 292 290 288 290
325 324 324 323 321 320 319 317 316 316 316 315 314 313 312 310 309 308 307 307 307 306 305 304 304 303 301 300 300 298 299 298 297 294 295 296 296 299 302 302 301 300 299 299 299 299 300 301 302 298 294 293 291 289 290 291 293 294 294 293 295 295 292 290 293 296 292 292 292 292 293 293 293 293 292 292 293 294 294 293 293 292 291 290 288
324 324 323 321 319 318 317 317 316 316 315 314 312 312 311 310 309 309 308 307 306 305 304 303 303 302 301 300 299 298 301 301 299 295 294 295 295 297 301 302 301 300 299 298 297 297 299 300 300 297 293 292 290 290 290 291 291 295 293 292 291 289 293 295 293 292 292 292 291 291 292 291 292 292 293 293 293 295 294 293 292 291 291 292 291
324 323 321 320 318 317 316 316 316 315 314 313 312 311 310 310 309 309 307 306 305 304 303 303 302 301 300 300 299 299 300 301 298 297 294 294 294 295 296 298 295 300 299 299 298 298 298 300 301 298 291 291 290 289 290 290 292 293 290 290 290 289 291 292 290 291 290 290 290 290 290 291 291 291 292 292 293 293 294 293 293 292 292 292 292
322 320 318 318 317 315 315 315 316 314 313 313 312 311 309 309 308 308 307 305 304 303 302 302 302 301 300 299 299 299 300 301 298 296 295 292 293 294 294 294 294 298 299 298 299 298 296 297 299 295 292 291 290 289 289 290 291 290 289 289 289 290 292 290 289 290 290 290 289 289 288 289 291 290 291 293 293 293 294 294 293 292 292 293 293
320 318 318 317 316 315 315 315 315 314 313 313 311 310 309 308 306 305 306 305 304 303 302 302 302 302 301 300 299 300 300 301 300 296 294 293 292 292 292 292 292 294 297 296 294 294 293 292 291 292 291 290 290 289 289 290 290 289 289 289 292 290 290 289 289 290 290 289 289 289 288 289 291 292 293 292 293 293 291 293 292 293 293 293 293
318 317 317 316 315 315 314 314 314 313 312 312 311 310 308 307 306 304 304 304 303 303 302 302 302 301 301 300 300 300 301 300 299 298 296 295 293 291 292 292 294 294 295 294 293 291 289 289 289 289 290 291 291 290 290 290 289 289 289 290 292 290 289 288 289 289 289 288 288 289 289 289 290 291 291 291 291 290 290 290 291 293 293 292 293
315 315 315 315 313 314 313 312 311 310 310 310 310 309 308 307 306 304 304 303 303 302 301 301 300 300 300 300 300 300 300 299 298 297 296 295 294 294 292 292 294 293 294 293 292 291 290 291 289 290 291 291 291 291 290 290 290 290 290 291 290 289 289 288 289 289 289 289 289 289 290 290 291 291 291 290 290 291 290 291 290 292 292 291 290
315 315 315 314 313 313 312 302 306 308 308 308 307 307 306 307 305 304 304 303 302 301 301 300 300 300 301 301 300 300 300 299 298 297 297 296 295 294 292 292 291 291 292 293 293 294 290 290 290 290 290 290 290 290 289 291 290 289 290 290 291 290 292 293 293 289 290 290 291 290 290 291 291 291 291 291 290 291 290 291 291 292 291 290 290
313 313 313 313 311 310 309 307 308 307 306 306 307 308 307 306 305 305 305 306 305 303 302 302 302 302 302 301 300 299 299 298 299 296 298 294 294 294 291 291 291 291 293 292 292 290 288 287 287 287 287 287 288 289 289 290 290 291 292 292 292 291 291 289 291 291 291 290 290 291 291 290 290 290 289 289 290 291 290 290 290 290 290 289 289
312 311 311 311 309 308 307 307 307 306 306 305 305 303 295 300 303 305 303 299 298 298 298 302 303 303 302 302 302 300 299 300 297 295 294 293 293 293 293 292 291 291 292 291 292 289 288 286 286 285 288 287 287 287 288 289 289 289 290 289 291 290 289 289 290 291 291 290 290 290 290 289 290 290 289 289 290 289 290 290 290 291 290 288 289
311 310 309 309 306 307 307 307 307 307 306 304 303 301 299 297 295 297 298 297 295 295 295 296 296 296 301 300 299 296 296 296 294 294 294 293 292 292 292 291 291 291 290 289 288 288 286 287 285 285 285 288 286 287 286 287 287 286 287 288 290 290 289 290 291 289 289 288 288 289 289 289 290 289 288 289 290 289 290 289 289 290 289 288 287
310 309 308 306 304 305 307 306 306 306 305 304 303 301 300 299 298 295 295 294 294 294 294 294 294 294 294 297 298 296 294 293 294 293 293 293 292 292 291 291 291 290 290 291 288 286 286 286 286 286 286 287 287 286 287 288 287 288 287 287 288 288 289 289 290 291 288 288 288 288 287 288 289 289 288 288 286 287 290 288 289 288 288 288 287
311 309 307 305 305 304 305 305 304 305 304 303 303 302 301 300 300 298 296 293 293 293 293 293 293 293 293 293 294 294 294 293 293 293 293 293 292 291 291 291 291 290 290 288 287 286 286 287 288 288 288 287 288 288 288 289 289 289 289 288 287 288 290 291 289 290 289 290 289 287 288 288 287 286 286 286 286 287 287 286 287 287 287 286 286
311 309 306 305 305 305 305 304 304 304 304 304 303 303 302 302 302 300 297 295 295 294 293 292 292 292 292 293 293 293 293 292 292 293 293 292 292 291 291 289 290 290 290 289 287 287 286 287 288 289 289 290 290 289 288 289 290 290 290 290 291 291 292 293 291 289 287 287 288 288 287 287 286 286 287 287 286 286 287 286 286 285 285 285 286
310 300 295 300 306 305 304 304 304 304 304 304 303 301 301 300 299 298 298 296 296 296 297 295 292 292 294 292 292 292 292 292 292 292 292 292 292 291 290 289 286 286 288 288 288 288 287 287 288 289 290 290 290 289 289 290 290 290 290 291 291 291 291 290 290 291 290 289 289 288 288 288 287 287 287 287 286 286 286 287 286 287 285 285 285
308 305 305 304 305 305 305 305 305 305 304 303 303 302 300 298 297 297 296 296 297 297 295 294 291 291 291 291 291 291 291 292 292 292 292 291 290 290 288 286 286 286 287 288 287 288 288 288 288 289 291 292 292 291 292 292 292 292 292 291 290 289 289 290 289 289 289 288 288 288 288 287 287 287 286 286 288 288 287 286 286 286 285 285 285
306 306 306 307 307 306 306 305 305 304 299 299 301 301 300 298 297 297 297 297 296 296 296 292 293 294 292 293 291 290 290 291 291 291 291 290 290 291 292 290 290 289 287 288 287 287 287 288 288 289 290 290 291 291 291 292 292 292 291 291 290 289 289 289 288 287 287 287 288 287 287 288 287 287 287 287 286 286 286 286 285 286 285 285 285
307 306 306 307 305 304 303 304 303 295 298 300 301 301 298 298 298 297 296 296 295 294 294 293 292 293 292 291 293 290 289 289 289 289 289 289 288 289 290 290 290 288 288 289 289 289 289 289 289 289 289 289 289 289 288 289 289 289 289 288 288 287 289 287 287 288 287 287 287 287 287 287 287 287 286 287 287 287 286 286 285 285 286 285 284
306 298 295 295 297 304 304 301 299 300 299 298 299 298 296 298 297 297 297 295 293 294 293 293 292 292 292 291 290 291 290 289 288 288 287 288 288 289 290 289 288 288 289 289 288 288 289 290 290 290 290 290 290 290 289 287 287 288 287 286 287 287 286 286 287 287 287 286 286 286 286 287 287 287 287 287 287 287 286 287 286 286 286 286 286
304 301 296 294 299 299 299 297 298 299 297 299 299 298 296 296 297 297 297 296 295 294 294 293 292 292 293 292 290 290 290 289 289 289 287 287 287 288 288 287 288 288 288 288 288 289 289 290 291 291 291 291 289 288 287 288 288 288 288 287 287 287 287 287 287 287 287 286 286 286 286 287 287 287 287 287 287 287 287 287 286 286 286 286 286
304 302 295 297 298 301 299 298 298 299 298 297 297 296 296 296 298 295 297 296 294 293 294 294 294 294 293 291 290 290 292 291 290 289 288 288 287 287 287 287 287 288 288 287 288 290 290 290 289 289 289 288 288 288 288 289 289 287 287 287 286 287 287 287 287 286 286 286 286 286 286 286 286 286 287 288 288 287 286 286 286 286 286 286 286
304 302 302 300 298 301 300 298 298 295 297 296 296 297 293 293 295 295 294 295 292 292 294 295 295 295 292 290 290 289 292 292 290 289 289 288 288 288 288 288 289 289 289 289 289 289 289 288 287 286 287 287 288 288 288 288 288 287 287 287 287 287 287 288 287 287 287 286 287 286 286 286 286 286 287 289 287 287 287 286 287 286 286 286 285
304 303 303 299 300 300 299 299 298 298 297 296 296 294 294 294 294 294 292 293 293 293 293 294 294 293 291 289 289 288 291 292 289 290 290 289 288 287 287 288 288 289 290 290 289 289 288 288 287 287 287 288 289 288 287 287 287 286 286 286 287 287 288 288 287 287 287 287 286 286 286 287 287 287 287 287 287 286 287 287 287 286 286 286 286
301 300 299 298 299 299 299 299 298 296 297 294 294 293 294 294 294 293 294 293 293 292 294 294 293 292 290 288 288 289 291 291 291 291 291 289 288 288 288 289 289 288 288 289 288 288 288 288 288 288 288 289 289 289 289 288 288 287 288 287 287 287 287 287 287 287 287 287 287 287 287 287 287 287 287 287 287 287 287 287 287 287 286 286 286
302 300 300 299 299 298 298 297 297 295 292 292 294 294 293 295 295 293 293 293 289 290 290 290 290 290 289 288 289 290 291 292 290 289 288 287 288 289 289 288 288 288 288 288 288 289 290 289 289 288 288 290 290 290 291 291 290 290 289 289 288 288 288 287 288 288 287 288 287 287 287 287 287 287 287 288 287 287 287 287 287 286 286 286 286
302 301 300 299 298 297 298 298 293 295 295 296 296 295 295 295 295 294 293 292 291 290 290 289 288 289 289 288 288 288 290 291 291 291 290 289 288 289 289 289 289 289 289 288 288 289 289 289 288 288 288 289 290 290 290 290 291 291 291 290 290 290 291 291 290 288 287 287 287 288 288 287 287 287 287 287 287 287 287 287 287 286 286 287 286
302 301 300 299 299 297 297 297 296 294 296 296 295 295 295 295 295 293 291 293 292 292 292 292 290 290 289 289 288 289 290 290 291 291 290 290 288 288 288 289 290 290 289 289 289 289 289 289 289 289 288 289 289 290 291 291 293 293 291 291 290 290 290 289 289 288 288 288 287 287 287 287 287 286 287 287 287 287 287 287 287 287 286 286 286
302 301 300 299 299 298 298 297 296 292 295 295 296 296 295 295 294 293 292 293 292 292 292 291 291 290 288 288 289 289 289 290 290 290 289 288 288 288 288 288 288 289 288 288 289 289 288 289 289 289 288 288 288 289 290 290 290 291 289 289 289 290 290 288 289 289 289 289 288 289 288 288 288 288 288 288 288 287 287 287 286 286 285 285 285
302 302 301 301 300 299 298 297 296 296 297 297 295 296 295 296 296 294 294 293 294 294 295 295 294 291 288 289 288 288 288 288 288 288 289 289 288 288 288 289 288 289 288 288 288 288 288 288 288 288 288 288 289 289 289 289 290 289 289 289 290 288 287 286 288 290 290 290 289 289 289 288 288 288 288 288 287 286 286 286 286 286 286 285 285
302 301 301 300 299 299 299 298 297 298 295 296 296 295 296 297 296 294 294 294 295 295 296 295 292 291 290 288 287 287 287 288 289 290 291 291 289 287 287 288 289 289 288 288 288 288 288 287 288 288 288 288 288 289 289 289 289 290 289 291 288 287 286 286 286 287 288 288 288 288 289 288 288 288 287 286 285 285 286 286 286 286 285 286 286
300 300 300 300 300 299 299 300 299 297 296 295 295 294 294 294 294 293 292 294 294 294 294 295 294 293 291 291 289 289 290 291 292 292 292 291 290 289 288 287 288 288 288 288 288 287 287 287 287 287 287 287 287 288 288 289 289 289 288 287 286 286 285 285 286 285 285 286 287 287 288 288 288 287 286 285 285 286 287 287 286 285 285 284 284
Wind_Speed
14 13 11 11 12 13 12 11 11 9 10 10 10 9 9 9 9 9 8 8 8 9 9 9 8 8 7 7 7 7 7 6 5 5 6 6 5 5 5 6 7 6 6 6 5 5 5 5 4 3 3 4 4 4 4 4 5 5 5 6 4 3 5 3 3 1 2 1 1 2 4 3 4 4 6 6 7 7 6 4 5 6 6 7 7
14 13 12 10 11 12 13 10 10 9 10 10 10 9 9 9 9 9 10 9 9 9 9 8 7 7 7 7 7 6 6 6 5 6 7 7 5 5 6 7 7 6 6 6 5 4 5 6 4 4 4 5 5 5 5 5 5 6 4 4 4 3 1 3 1 1 1 4 5 3 4 3 3 3 5 7 7 6 8 8 6 4 6 6 7
13 12 12 11 11 11 11 11 11 12 12 10 11 10 9 9 9 11 10 9 8 9 9 8 8 7 7 7 7 6 7 6 6 6 7 7 7 6 6 7 7 7 7 6 6 5 5 5 5 4 4 5 5 5 5 6 5 7 5 4 4 3 3 3 2 1 0 2 2 3 3 4 2 4 6 4 4 3 5 7 7 6 5 5 6
12 13 12 12 12 11 12 11 12 12 12 11 12 11 10 10 9 10 10 9 9 7 8 8 8 8 8 7 7 7 7 7 6 6 7 7 7 7 6 6 6 6 7 7 6 6 6 5 4 5 4 5 5 6 5 5 6 6 5 3 4 4 3 4 3 2 1 1 3 2 3 3 2 2 5 5 6 6 3 5 6 6 5 6 5
13 13 13 13 13 13 12 12 13 13 12 11 12 12 12 11 9 10 10 9 9 8 7 7 8 8 8 9 8 8 8 8 7 7 6 6 7 7 6 6 6 6 6 6 6 6 6 5 4 4 5 6 4 6 5 6 4 6 5 3 4 4 4 5 4 3 3 3 2 2 2 2 1 2 3 5 8 6 3 3 5 7 8 5 5
13 13 13 14 13 14 13 12 13 13 12 11 13 12 12 11 10 9 10 10 9 8 9 8 9 9 8 8 8 8 8 8 8 8 7 6 6 6 5 6 6 6 6 6 6 5 5 5 4 5 5 6 5 4 5 5 5 5 5 4 4 4 5 4 4 4 5 2 1 3 3 4 4 2 2 3 5 7 9 9 6 5 8 11 9
14 14 14 14 13 14 14 13 12 12 12 11 11 11 12 12 11 11 9 10 10 9 8 9 8 8 8 8 8 8 8 7 7 7 6 6 6 6 6 6 5 5 5 6 5 5 5 4 4 5 6 5 5 6 6 5 6 5 4 4 3 5 5 4 4 5 4 3 2 2 2 1 1 3 4 4 2 0 3 8 10 8 6 6 10
14 14 14 14 14 14 13 12 12 12 11 11 12 12 11 12 11 10 9 10 10 10 10 10 7 7 8 8 7 7 7 7 6 6 6 6 7 6 6 7 6 5 5 4 5 5 5 5 5 5 6 5 6 5 6 6 5 5 2 4 4 5 4 4 5 4 4 4 4 3 2 2 5 2 3 4 5 4 1 1 6 9 10 9 7
14 14 14 14 14 12 11 11 11 11 11 12 12 12 12 11 11 10 10 9 8 9 9 9 9 8 7 7 7 6 7 7 6 7 7 7 7 8 7 7 7 6 5 5 5 6 5 5 5 5 5 7 8 6 6 6 6 5 2 4 4 6 4 4 4 5 4 4 4 2 3 5 3 3 6 3 4 5 5 3 4 7 6 7 10
15 14 14 14 12 12 11 11 11 11 12 13 12 12 11 11 11 11 11 10 9 8 8 8 9 9 9 7 7 6 6 5 8 12 10 8 7 6 6 6 6 6 7 7 5 5 5 5 5 11 11 10 9 9 8 7 6 6 6 5 6 5 4 4 4 4 4 5 2 2 4 5 5 3 2 3 3 4 5 5 6 7 7 7 8
14 15 14 13 12 12 12 12 12 12 12 12 11 12 12 11 10 10 10 10 10 9 9 9 9 8 9 8 8 7 6 6 12 13 13 12 8 7 7 6 6 7 7 7 7 5 4 4 4 7 7 8 6 8 8 9 9 8 7 6 6 6 5 4 2 2 2 1 1 0 1 4 6 3 2 5 4 3 4 4 5 5 4 5 6
14 14 14 13 13 13 12 13 12 12 12 12 12 11 11 11 11 10 9 9 8 8 9 10 9 8 8 8 8 7 6 9 14 13 14 14 10 7 5 6 5 6 6 6 6 5 5 4 3 3 4 5 5 4 6 8 8 7 6 5 4 5 2 1 2 1 1 1 1 2 1 4 5 5 3 1 4 5 5 5 3 3 5 4 5
14 14 14 14 13 13 13 14 13 12 12 12 11 10 11 11 10 10 10 9 8 9 10 9 8 8 9 9 8 7 6 11 15 15 14 14 13 10 7 6 7 6 7 6 7 5 5 4 3 3 3 8 5 4 5 4 6 7 6 4 3 4 4 5 4 1 4 2 1 3 4 2 3 4 1 2 2 5 5 6 5 4 3 5 6
14 14 14 14 14 14 14 14 14 12 12 11 11 11 11 11 10 9 8 8 9 9 8 9 8 8 9 9 8 7 7 11 16 15 15 15 15 12 6 7 7 8 9 7 7 6 6 5 3 2 1 1 1 2 2 2 3 3 3 2 1 1 3 6 8 6 5 4 3 3 3 5 5 4 6 2 4 6 5 6 4 4 5 6 6
13 13 14 14 14 14 14 14 14 12 12 11 11 11 11 10 10 10 9 10 11 10 10 9 8 8 8 8 8 8 8 14 16 16 15 15 15 11 7 7 7 8 9 10 10 9 9 10 10 9 6 5 5 5 5 4 3 3 3 2 1 0 1 3 3 4 5 5 5 6 7 4 6 7 7 5 5 6 5 6 4 4 5 6 6
13 13 14 14 15 14 14 13 13 12 12 11 12 11 10 11 11 9 9 8 8 8 7 7 8 8 8 9 9 9 7 15 16 15 15 15 15 8 8 8 9 9 8 9 10 10 10 10 10 10 11 10 11 13 10 5 4 4 4 2 1 1 1 3 5 7 6 7 6 6 7 6 7 7 8 8 7 5 3 2 2 3 3 5 6
14 14 14 14 15 15 15 15 13 13 12 12 11 11 10 10 9 8 10 9 9 9 9 8 8 9 9 10 11 9 7 11 14 15 15 16 11 6 6 6 7 8 8 8 8 7 8 9 9 9 9 9 11 12 11 8 5 5 4 2 2 1 0 2 4 3 9 9 9 9 11 12 12 12 14 15 10 5 1 3 5 2 6 6 6
14 14 14 15 14 14 14 14 15 13 13 13 11 10 9 9 10 9 11 11 10 9 9 8 8 9 11 11 10 9 7 9 14 16 15 15 11 9 7 8 7 7 7 6 6 7 8 15 11 8 7 7 10 11 12 10 6 5 4 3 2 2 1 2 2 2 2 5 7 9 10 10 11 12 11 9 4 5 1 3 3 2 6 4 4
15 15 14 15 14 13 13 14 14 14 13 13 13 13 12 11 9 9 9 9 10 8 8 8 8 7 8 9 9 10 8 9 12 16 16 16 11 7 8 7 8 7 7 6 6 7 8 11 13 9 7 8 11 12 13 10 6 5 5 4 3 3 3 1 1 2 3 4 1 3 5 6 4 5 7 11 8 3 4 4 2 1 4 6 5
12 13 13 13 13 13 14 16 15 16 17 15 12 11 9 8 9 10 8 9 8 8 8 8 9 6 5 7 8 9 10 9 11 16 17 16 14 9 7 8 8 8 6 7 7 6 8 7 8 11 12 11 12 13 13 12 7 5 5 5 5 5 5 3 2 1 1 1 4 3 4 4 3 4 5 5 4 2 5 4 2 2 2 4 5
13 12 11 11 11 12 12 14 14 12 12 12 11 9 9 10 10 10 9 8 8 7 8 7 7 7 6 7 8 8 10 12 12 16 16 16 15 12 7 8 8 7 7 7 7 8 7 6 5 9 12 12 13 14 13 13 10 7 6 6 6 5 6 3 3 3 1 1 3 3 4 4 4 4 5 5 4 3 3 2 1 3 2 4 5
13 13 12 12 13 13 13 11 11 11 9 9 9 9 8 10 11 11 9 9 10 9 7 7 7 7 6 7 7 9 9 15 12 14 15 14 14 14 8 7 8 8 7 7 6 6 7 6 6 8 12 12 13 14 14 13 13 6 7 7 8 10 5 3 3 2 1 1 2 4 4 5 5 5 6 6 4 3 4 4 3 3 3 5 4
13 13 14 13 12 12 12 14 12 8 9 10 11 10 8 9 9 9 9 8 9 9 8 7 7 6 6 5 5 7 8 9 14 12 13 13 13 12 11 7 8 8 9 8 8 8 6 6 7 10 12 12 13 14 14 14 9 6 8 9 10 8 5 3 2 1 0 1 1 4 4 3 4 5 6 7 6 4 4 4 4 3 3 3 3
12 13 12 12 12 11 11 11 10 9 11 11 11 11 10 9 9 8 9 9 9 8 6 7 6 7 8 6 5 5 7 8 9 12 11 13 13 13 11 11 11 7 7 7 6 6 5 5 6 9 11 12 13 13 13 12 9 10 10 11 9 7 3 3 2 2 1 2 3 3 4 3 2 4 6 6 5 4 5 4 5 4 3 5 4
13 12 12 11 12 11 11 11 10 10 9 11 11 10 9 9 8 6 8 8 8 8 7 8 9 8 7 8 7 7 7 6 6 7 11 13 13 12 12 10 10 9 6 3 4 5 4 4 3 5 9 11 13 12 9 11 11 9 10 9 7 4 4 4 3 2 2 4 5 4 4 6 5 6 6 6 6 4 3 4 4 4 3 3 4
12 12 11 10 10 10 9 9 8 8 9 8 9 10 11 9 9 7 7 7 8 8 8 8 7 7 6 5 6 7 7 6 6 6 7 8 8 10 11 9 9 8 7 7 8 6 5 4 5 4 5 7 6 5 6 7 9 8 8 6 4 5 4 4 3 4 5 5 4 6 6 4 5 5 4 4 5 6 2 3 5 6 6 6 9
11 10 10 8 8 9 10 8 7 6 6 5 5 6 6 8 8 8 8 8 8 7 7 7 6 6 8 8 7 6 6 6 6 5 5 6 6 7 6 5 4 4 3 3 5 5 3 1 2 4 3 8 10 8 7 6 5 4 4 4 4 5 5 5 5 5 5 5 5 6 5 5 4 4 6 6 6 7 2 1 3 5 4 4 3
13 12 12 10 9 9 8 10 10 8 7 7 7 6 5 7 9 10 10 10 9 8 9 9 10 10 9 7 7 6 6 5 6 8 8 7 7 6 6 6 7 7 7 5 5 4 3 3 4 3 3 3 4 3 4 4 5 4 5 5 5 4 4 4 4 3 5 5 5 5 5 4 5 6 6 7 7 7 2 0 1 4 4 2 4
12 11 9 9 8 7 8 8 8 8 7 6 6 8 10 10 9 8 6 8 11 13 12 10 9 8 8 9 9 8 6 7 10 11 10 10 10 8 7 8 8 7 9 8 4 3 3 2 2 3 3 3 4 5 5 5 5 5 4 4 4 4 4 4 6 6 6 5 6 6 7 5 6 5 6 6 7 7 1 2 2 2 3 0 2
11 10 9 8 7 8 7 7 7 8 8 8 7 4 8 6 4 6 7 5 5 4 7 10 10 9 8 8 9 11 11 13 13 13 11 11 13 14 13 12 12 10 10 12 8 4 4 5 4 4 5 4 5 6 6 6 6 5 5 4 5 5 5 5 6 7 5 6 6 6 7 5 6 6 6 7 7 6 2 3 3 0 1 2 5
10 9 9 8 10 9 9 8 7 7 7 7 6 7 5 5 6 8 7 7 8 9 9 6 8 10 10 8 7 7 5 4 9 13 13 12 14 14 13 12 13 12 10 7 4 6 6 7 6 5 6 5 5 5 5 5 6 5 5 6 5 6 5 5 7 5 6 5 6 6 6 6 7 7 6 7 7 6 5 2 2 1 2 3 4
10 9 8 8 9 9 8 8 8 8 7 7 7 7 7 6 3 3 5 10 10 11 12 11 11 12 11 8 7 5 7 10 12 13 14 14 14 14 14 14 13 13 13 14 8 7 7 7 7 6 6 6 6 6 6 6 5 5 5 4 6 7 6 6 7 6 6 5 6 6 6 6 7 8 8 7 3 4 4 6 5 4 4 2 4
12 9 9 9 9 9 9 8 8 8 8 8 7 7 8 8 9 7 1 2 7 10 10 11 10 10 11 10 11 11 11 11 13 13 14 14 14 14 14 14 12 13 12 7 7 7 6 7 7 7 7 7 7 7 6 6 6 6 6 6 6 6 6 7 4 5 5 7 6 6 6 6 6 7 5 4 3 4 5 5 4 2 3 4 6
12 12 11 11 10 9 8 8 8 8 7 7 8 8 7 7 7 7 7 5 2 1 4 7 10 12 12 13 13 13 12 12 13 13 14 15 15 15 11 5 7 11 12 9 7 8 7 7 7 7 7 7 7 6 7 7 7 7 6 6 7 6 6 4 4 6 6 6 6 6 6 6 6 6 6 4 4 3 5 5 3 3 5 5 5
8 8 12 11 9 9 8 7 7 7 6 7 7 8 7 6 6 8 9 9 8 8 7 4 2 5 8 9 11 11 11 12 13 14 14 14 14 9 12 7 5 3 5 5 7 7 8 8 8 8 7 8 8 7 8 7 7 7 7 7 6 6 6 5 6 6 7 6 5 6 7 6 6 6 6 5 4 4 5 5 4 5 5 6 4
9 9 9 9 8 7 7 7 7 8 8 7 6 6 5 6 6 6 4 4 5 5 4 3 3 1 5 7 9 11 11 12 13 14 15 13 12 16 8 6 6 7 8 8 8 8 7 7 7 7 7 8 7 7 7 7 7 7 6 6 7 6 6 6 5 5 5 4 5 6 5 5 6 5 4 3 4 5 4 5 6 5 4 5 5
8 8 8 7 8 8 8 7 7 7 7 7 7 5 4 5 5 5 5 6 6 5 5 4 3 2 2 1 1 2 3 7 7 7 8 11 16 12 8 9 9 8 7 7 7 6 7 7 7 7 7 7 7 6 5 5 6 6 6 6 6 5 6 6 5 4 4 4 5 4 5 6 5 5 6 5 5 5 5 5 5 5 5 5 4
9 9 8 8 6 7 7 6 6 7 7 6 6 8 8 7 8 7 6 6 6 6 6 5 5 6 7 4 4 4 5 8 10 8 7 6 5 5 6 6 7 7 8 8 8 8 8 8 7 8 8 6 6 6 6 7 7 7 6 6 4 4 5 4 4 4 4 5 6 6 6 6 6 6 5 5 5 5 4 5 4 5 5 4 3
5 8 11 11 8 7 7 7 7 7 7 6 6 7 7 7 7 6 6 5 6 6 5 5 6 6 5 5 4 6 8 4 5 5 5 5 6 6 6 6 7 7 6 7 6 6 7 7 7 7 6 6 7 6 7 7 7 5 5 4 4 3 3 5 5 6 5 5 6 6 6 7 5 5 5 5 5 5 5 5 4 4 5 6 6
7 6 8 11 7 7 6 7 7 7 7 7 7 6 6 7 7 7 7 7 7 6 6 6 6 6 5 6 6 6 6 6 6 6 5 6 6 6 6 6 6 7 7 6 6 6 7 7 6 6 6 6 6 6 6 6 7 6 6 6 6 6 6 6 6 7 7 6 6 6 5 6 6 4 2 3 5 5 5 6 6 5 5 5 6
6 7 7 8 8 7 6 6 6 7 6 6 6 7 7 7 7 6 6 6 6 7 6 7 7 6 7 9 12 11 8 7 6 5 7 7 7 6 7 6 7 7 6 6 6 6 6 6 6 6 6 6 6 6 6 6 6 4 5 5 5 6 6 6 6 6 6 5 6 6 6 5 3 2 5 6 5 5 5 5 6 5 5 5 6
7 7 7 6 8 7 7 6 6 6 6 7 7 7 6 6 6 6 7 7 7 7 6 6 5 5 8 13 13 13 7 5 5 5 5 5 5 6 6 7 7 7 7 7 7 7 7 7 6 6 6 6 6 6 5 5 5 5 5 5 5 6 6 6 6 6 6 6 6 6 5 3 3 3 5 5 5 4 5 5 6 6 6 6 6
8 8 7 7 7 8 8 7 6 7 6 6 6 5 6 6 6 6 6 6 6 6 6 6 5 4 6 9 11 11 7 5 5 6 6 6 6 6 7 8 7 7 7 6 6 6 6 6 6 6 6 7 7 6 7 7 7 6 6 6 7 6 7 7 6 6 6 6 7 4 2 3 3 4 4 4 5 4 5 6 6 6 6 6 5
7 7 6 6 6 5 5 6 7 6 6 6 6 6 6 6 6 6 6 6 6 7 7 6 5 5 5 5 7 7 7 7 6 6 6 6 6 7 7 7 7 6 6 6 6 5 5 6 6 6 6 6 6 5 7 7 6 6 7 7 7 7 7 7 7 7 7 7 5 2 3 4 4 4 4 5 5 5 6 5 6 6 6 6 5
7 7 7 6 6 6 6 6 6 6 6 6 5 5 5 6 6 6 6 6 5 6 6 5 4 5 5 6 7 7 7 7 6 4 4 6 6 7 7 6 6 7 6 7 6 5 6 6 7 6 7 7 7 7 7 7 7 8 7 7 6 6 6 7 7 7 6 5 4 4 5 5 5 5 5 5 5 5 6 6 6 5 5 5 5
7 7 7 7 7 6 6 6 6 6 6 6 6 6 5 6 6 6 6 6 5 6 6 5 4 5 6 6 6 7 7 6 6 6 6 5 6 6 6 6 6 6 7 7 6 6 6 6 7 7 7 7 7 7 7 6 6 6 6 6 7 6 6 6 5 5 5 5 5 5 5 4 5 5 6 6 6 5 6 6 5 5 5 6 6
8 7 7 7 7 7 6 6 6 6 5 5 5 6 6 6 6 6 5 6 6 6 6 6 5 6 6 6 6 7 6 6 6 6 7 7 6 6 6 6 6 6 6 6 6 6 7 7 6 6 7 6 6 7 7 7 6 6 7 6 6 6 6 6 6 6 6 6 5 4 5 6 6 6 6 6 5 6 5 6 6 6 5 5 6
7 7 7 7 7 7 6 6 7 6 6 6 7 7 7 6 6 6 6 5 6 6 5 4 5 5 5 6 6 6 6 7 7 7 6 6 6 6 5 5 6 6 6 6 6 6 6 7 7 6 7 7 7 7 7 7 6 6 5 4 5 6 9 9 6 6 6 5 4 5 5 6 5 5 5 5 6 6 6 7 6 5 5 5 6
7 7 7 7 7 7 8 8 7 7 8 7 7 7 6 6 6 6 6 6 6 6 5 5 5 5 6 6 6 6 5 5 6 6 6 6 6 6 6 6 6 7 6 7 7 7 7 7 6 7 7 7 7 7 7 7 7 6 6 6 8 11 12 11 8 7 9 6 5 4 4 5 5 5 5 5 6 5 5 5 4 5 5 4 5
7 7 7 7 7 6 6 6 6 5 5 6 7 7 6 6 6 6 6 6 6 5 5 5 6 6 6 5 5 5 5 6 6 6 6 6 6 6 6 6 7 7 6 7 7 6 6 6 6 6 6 7 7 7 7 7 6 7 6 7 9 10 10 11 11 10 6 3 4 4 6 5 5 5 5 4 3 4 4 5 5 5 5 4 4
7 6 6 6 6 6 6 6 6 6 6 6 6 6 6 6 6 6 6 7 6 6 5 5 5 5 6 6 6 6 6 6 6 6 6 6 6 5 6 6 7 6 6 6 6 6 6 6 6 6 6 7 6 7 7 7 7 7 8 10 10 11 11 8 5 5 5 4 3 3 3 3 3 4 4 4 4 5 6 6 5 4 4 4 3
Wind_Direction
169 170 169 172 167 170 171 170 169 167 166 169 165 164 161 160 161 160 152 162 158 158 160 162 163 159 154 156 154 155 154 154 153 147 141 138 141 142 144 136 133 139 134 130 126 129 132 129 135 136 123 95 97 79 71 84 83 89 98 102 98 108 107 102 100 14 313 277 276 311 325 11 17 19 18 2 1 357 355 356 350 344 336 334 330
171 166 171 171 171 169 169 168 165 165 166 168 166 163 162 162 159 157 164 164 163 162 163 165 163 157 154 155 154 152 153 151 154 148 144 142 145 152 148 141 138 140 135 137 138 131 126 119 118 120 110 114 100 85 96 79 86 83 51 95 99 55 68 106 115 106 317 322 348 332 345 36 31 5 23 3 353 352 351 344 344 345 332 325 329
168 165 168 172 173 169 167 167 165 166 167 168 167 162 160 158 160 161 163 163 165 164 165 164 162 155 153 156 153 155 158 157 160 154 151 152 155 160 159 152 149 147 142 147 145 139 124 124 132 131 119 96 92 95 89 90 89 88 77 82 86 68 52 97 114 83 351 305 283 346 354 346 48 6 3 353 345 352 343 339 334 326 328 326 323
167 166 169 172 171 169 171 168 167 168 170 170 168 161 157 160 163 162 161 160 162 165 162 160 159 160 157 158 159 159 161 160 161 162 158 159 160 162 162 154 148 148 147 148 148 141 138 129 138 124 114 104 99 90 88 95 93 92 86 72 86 72 70 74 79 129 151 35 316 18 333 28 331 347 359 346 341 338 341 313 321 330 330 328 326
168 167 169 171 173 174 174 172 172 173 171 170 166 159 159 159 164 162 158 162 162 156 160 159 160 162 166 166 164 166 167 164 162 165 165 165 162 162 161 153 151 151 148 150 148 143 143 144 149 123 119 111 101 92 94 92 100 96 91 77 81 76 60 63 68 82 108 73 313 299 325 0 313 328 21 10 331 331 339 1 332 318 329 332 326
167 167 170 173 177 177 177 175 175 174 170 167 163 161 160 161 163 164 163 161 159 161 159 168 170 171 170 169 166 167 166 166 168 169 168 162 159 160 157 151 151 148 149 147 145 147 148 152 142 133 127 125 121 104 96 99 89 83 86 76 79 70 67 54 73 78 80 101 111 5 353 26 348 325 300 18 343 328 337 340 345 354 344 335 334
166 169 173 175 178 180 178 178 173 171 168 163 160 161 162 164 163 165 166 160 159 162 169 171 176 170 171 167 169 168 168 168 169 169 163 157 157 157 156 150 149 151 152 149 147 142 138 132 132 134 129 130 125 120 112 100 98 92 103 100 84 83 71 67 70 68 68 66 48 67 351 304 64 325 312 352 313 295 323 340 338 334 334 334 328
166 171 173 175 179 180 178 173 170 168 163 159 161 162 163 165 166 161 158 160 164 168 172 174 171 170 171 173 172 168 166 168 169 165 158 157 158 162 161 155 155 154 149 138 130 127 130 128 129 134 132 133 127 134 122 121 111 99 112 108 97 90 90 87 73 78 70 62 60 13 344 301 338 293 307 358 359 347 61 294 314 326 332 328 310
168 171 174 177 178 175 170 168 165 162 161 160 162 164 164 164 161 160 160 162 167 172 169 166 166 173 174 172 171 169 168 171 170 165 158 162 162 164 163 159 155 150 135 122 124 124 123 127 125 131 133 133 132 138 141 141 127 121 137 121 111 109 107 91 107 96 77 74 31 22 11 350 310 330 332 327 338 303 301 351 312 311 312 319 319
170 172 175 176 172 168 165 163 162 160 162 165 165 164 163 161 159 161 162 164 166 165 165 168 172 174 172 173 171 171 172 173 175 169 165 162 164 160 157 158 155 145 134 128 125 126 129 128 140 134 127 127 123 124 129 132 133 134 152 133 125 112 115 112 97 103 98 75 65 36 6 320 292 290 259 260 285 299 323 333 327 312 330 323 313
173 172 174 172 168 163 161 163 161 164 165 166 165 163 161 159 160 162 160 163 165 166 166 171 178 175 173 171 174 176 176 179 174 166 164 162 160 161 161 161 151 140 137 136 133 124 110 112 114 118 118 114 118 127 133 130 125 132 140 140 144 136 125 103 121 141 122 136 171 144 208 274 289 267 251 280 284 282 290 300 290 304 322 336 323
173 172 169 167 165 163 162 161 163 164 165 168 166 161 158 159 161 162 159 162 165 163 171 178 176 172 169 171 175 178 178 178 168 168 166 168 163 155 147 146 142 133 130 125 121 115 114 102 94 102 120 133 138 142 147 143 135 125 108 87 69 25 15 126 144 149 154 154 228 240 216 260 266 300 290 263 296 316 307 303 286 288 314 319 297
169 167 167 165 165 163 161 162 164 166 169 167 164 160 161 163 161 161 167 167 159 169 180 175 175 169 168 170 177 177 177 176 171 171 170 165 154 142 151 147 140 131 120 123 122 119 115 106 104 128 151 152 145 166 167 157 145 143 135 148 152 177 231 276 288 186 157 148 202 258 201 228 278 281 210 282 320 306 307 311 304 310 277 286 280
168 167 165 165 163 163 163 164 166 168 166 165 165 166 168 169 164 165 162 161 169 176 176 177 168 169 172 171 172 177 177 179 174 173 169 162 157 151 154 144 139 137 134 137 124 138 130 122 118 135 252 112 124 192 212 167 165 154 176 166 170 243 249 243 234 229 210 188 177 230 241 161 241 266 286 300 302 290 291 286 296 309 305 285 285
167 165 164 163 161 163 165 165 165 166 165 165 168 172 173 164 164 167 168 172 175 177 175 174 173 170 170 167 168 178 188 178 177 173 168 162 159 148 153 147 137 138 145 151 152 156 155 156 166 180 183 178 192 211 216 213 194 207 209 187 158 235 261 266 234 209 212 213 215 228 255 236 244 265 277 285 256 256 240 243 263 264 278 287 291
167 164 163 163 164 164 164 164 163 163 164 167 171 174 175 168 168 167 167 171 174 170 173 166 166 170 168 168 171 183 186 180 175 170 164 163 161 152 153 156 156 156 157 165 169 169 178 171 173 177 189 193 190 202 208 192 197 201 207 160 88 30 305 273 266 210 203 208 215 227 238 250 259 274 280 278 279 263 253 262 241 236 307 331 321
169 168 165 165 166 165 163 162 163 165 166 168 175 176 174 170 165 163 167 170 168 174 174 176 173 167 169 175 179 179 173 185 170 164 164 159 149 142 156 159 159 156 170 178 175 177 189 182 178 186 193 188 189 197 198 178 196 207 193 140 108 102 319 326 359 213 213 221 232 244 259 268 274 281 279 264 238 231 166 1 330 354 359 346 321
168 168 167 166 165 165 164 162 164 167 169 172 175 177 175 171 168 170 172 170 173 176 174 175 174 175 175 180 178 164 170 177 172 161 160 156 151 157 166 161 166 170 176 179 182 191 197 192 185 193 197 189 177 181 189 181 194 202 178 146 128 113 186 331 334 343 288 266 263 260 264 271 263 258 265 302 312 152 164 325 271 52 343 337 311
167 170 168 165 165 162 163 163 165 168 165 168 178 178 176 175 167 169 171 169 172 169 171 175 181 185 179 167 155 153 160 171 175 161 162 155 153 158 162 165 166 180 177 180 195 194 200 208 187 179 194 191 176 181 189 189 193 189 176 149 153 169 201 180 310 334 341 349 306 278 258 255 323 346 318 303 299 195 209 240 226 62 328 311 309
165 160 162 167 163 159 164 175 173 167 172 178 176 175 165 155 162 165 164 167 164 169 173 176 175 168 156 155 158 158 158 168 178 175 167 163 158 159 166 163 178 176 171 173 185 203 200 203 195 194 194 185 182 187 192 192 188 190 164 173 175 204 186 167 202 190 251 263 290 295 282 282 295 329 330 313 304 197 218 219 206 192 256 292 292
153 158 159 156 160 164 162 168 169 171 168 167 167 163 166 164 159 161 163 164 164 170 172 166 155 153 156 158 155 165 168 166 185 186 174 170 165 158 174 182 179 168 169 176 182 187 199 202 200 197 191 185 185 188 191 200 198 185 183 189 199 170 145 150 177 187 233 268 290 295 312 336 329 320 318 295 286 297 300 281 210 194 206 270 301
154 156 160 164 161 164 168 167 157 161 163 150 156 166 168 164 164 166 168 168 170 167 162 158 154 154 153 160 168 168 178 176 172 192 184 177 176 175 168 191 176 164 169 179 190 195 201 199 203 205 197 188 187 186 192 200 201 188 202 188 145 138 160 166 161 174 196 268 305 316 332 347 337 318 310 300 299 291 281 273 260 230 213 207 226
156 160 162 163 167 169 163 159 160 159 158 159 158 161 164 166 169 165 161 155 155 157 156 146 143 149 153 157 159 171 175 185 177 178 189 184 187 191 184 174 178 172 167 184 195 205 207 202 209 196 189 191 189 192 197 199 193 207 191 169 168 165 152 160 162 168 247 268 312 304 305 319 328 307 296 292 299 292 277 268 265 267 287 264 212
155 159 160 160 160 158 158 159 158 155 154 157 160 160 167 170 166 164 158 156 155 154 155 152 152 157 165 161 160 171 186 183 193 187 178 187 192 196 191 187 179 186 179 184 192 198 193 205 210 199 194 197 197 197 199 190 198 198 181 187 173 165 161 160 175 197 219 288 276 274 283 279 275 288 271 262 270 276 274 278 284 291 307 307 288
155 157 160 163 167 160 154 155 157 153 159 161 161 164 165 158 153 154 155 156 156 157 163 170 178 177 161 163 166 184 193 191 184 185 186 194 196 196 197 186 187 163 155 153 150 177 188 174 182 208 201 200 205 205 201 202 204 189 191 186 173 164 177 188 193 169 232 255 253 258 264 254 240 254 273 286 283 289 291 297 302 311 319 285 268
149 152 155 160 158 138 145 147 148 153 158 168 166 164 160 161 158 154 151 153 158 161 169 177 173 166 157 146 175 187 187 187 183 186 203 205 204 205 195 189 190 180 155 162 164 138 138 167 192 219 220 214 199 192 198 207 207 195 200 192 187 191 188 188 188 193 233 243 242 245 247 256 268 268 280 278 284 280 284 304 335 325 347 354 349
140 141 151 145 131 145 151 156 138 134 145 140 143 149 155 158 153 153 157 158 161 163 164 167 155 147 165 183 175 172 181 190 190 195 203 202 200 199 189 186 178 158 154 162 127 125 143 168 160 180 220 200 200 202 199 182 173 196 212 208 211 210 200 197 203 210 230 239 245 249 253 257 278 307 290 293 291 288 220 239 301 292 340 330 346
151 154 154 148 150 153 152 141 140 143 148 148 142 136 151 162 160 163 166 168 165 171 174 175 177 181 181 171 164 172 189 182 193 203 206 196 192 179 173 174 183 193 193 191 164 143 130 118 88 74 89 119 169 160 194 186 196 192 208 211 219 221 219 218 226 224 236 228 251 262 275 268 274 265 273 273 272 272 283 210 270 300 318 335 357
140 137 138 141 142 140 139 146 146 144 144 148 156 164 169 173 172 180 190 176 180 178 182 184 181 179 170 172 179 188 183 198 214 209 200 183 177 175 175 189 193 199 204 173 135 109 102 100 86 98 109 154 179 194 196 195 210 210 214 222 227 226 216 204 225 235 235 222 241 244 255 262 263 264 258 270 266 263 265 320 277 221 302 81 300
133 140 142 141 135 132 134 139 144 147 150 152 140 86 32 76 140 166 171 169 151 144 161 179 184 173 177 196 189 185 191 207 209 201 202 185 187 186 192 190 189 194 193 179 169 160 174 176 182 165 168 183 200 206 203 199 203 213 227 232 235 237 230 225 231 243 235 225 238 241 247 245 263 265 254 241 266 274 260 203 271 308 286 300 309
135 137 141 150 154 151 148 148 152 150 150 145 140 132 114 39 65 129 143 154 157 158 177 171 159 182 182 188 204 225 233 210 193 197 199 193 192 196 196 194 191 192 167 144 171 189 196 198 208 199 192 194 206 214 210 206 208 210 230 234 238 237 237 230 235 234 234 234 239 241 249 237 247 248 242 241 241 275 305 271 214 214 230 257 269
145 150 150 142 141 145 150 149 149 148 150 148 149 151 144 133 82 46 148 168 172 175 180 181 180 185 193 186 174 208 202 198 197 196 196 196 198 199 198 194 190 175 177 169 180 201 194 201 204 208 203 203 215 210 212 213 212 211 221 239 249 239 229 238 234 221 232 234 242 243 236 234 235 239 233 243 233 257 268 291 295 303 297 260 248
143 142 139 142 145 146 149 152 155 153 154 155 158 162 160 166 170 173 91 90 187 189 189 192 190 191 190 192 188 187 192 195 201 200 198 199 199 202 201 195 181 173 153 163 192 198 202 204 206 208 205 212 210 208 215 213 213 218 215 221 237 243 225 237 234 228 234 235 231 239 236 236 235 240 243 231 207 252 258 261 271 265 259 282 294
144 147 150 154 152 155 154 157 157 160 159 163 168 172 181 178 172 156 161 148 117 217 243 221 205 194 195 196 199 203 201 196 201 203 202 203 200 204 188 153 146 164 167 184 184 204 200 208 211 209 212 215 215 207 212 215 215 220 225 227 234 242 243 234 214 235 236 237 226 237 233 234 224 221 240 238 226 230 258 258 256 271 276 250 260
133 134 140 146 152 155 152 147 144 143 150 164 166 171 168 166 156 164 175 178 184 188 196 195 166 188 202 206 213 210 203 202 204 209 206 202 200 153 109 111 123 163 202 200 195 202 202 206 211 212 208 213 216 207 212 213 212 216 222 229 235 238 251 253 244 246 244 242 229 232 227 221 213 204 203 215 213 220 244 259 262 234 244 270 261
133 139 143 138 133 134 139 146 153 161 168 170 162 155 149 143 149 160 155 154 163 167 147 151 151 125 186 205 213 213 211 209 210 206 204 190 148 136 147 163 175 190 198 205 203 209 204 209 209 219 217 224 218 214 213 213 212 214 218 218 224 229 232 244 249 250 249 234 238 244 238 226 210 196 190 200 211 226 238 241 252 254 239 250 255
132 136 142 149 151 154 154 157 164 164 149 139 140 138 130 137 143 144 155 164 170 168 165 135 123 121 89 93 164 197 233 225 214 200 181 160 161 165 182 178 189 188 195 208 209 212 211 218 210 217 220 225 227 223 217 221 222 223 221 217 215 219 230 236 247 238 245 249 252 242 219 213 203 192 174 205 227 221 230 235 243 255 256 258 250
144 153 159 152 140 133 140 154 148 137 142 149 150 152 156 158 160 165 169 175 169 165 170 181 186 186 190 186 110 121 107 102 96 83 91 118 157 196 192 188 185 183 200 207 204 204 215 218 212 217 220 213 216 213 209 217 212 212 210 217 225 235 257 269 276 262 246 247 253 233 214 217 212 201 185 202 227 239 247 231 228 256 271 254 209
111 117 125 133 141 147 150 143 143 148 148 147 152 154 159 158 160 164 168 162 171 181 183 178 188 195 177 141 131 130 122 127 154 170 171 183 189 193 194 188 193 206 210 212 208 207 221 222 218 215 216 211 212 208 205 213 210 212 216 217 242 250 260 259 257 259 257 252 247 231 220 228 229 219 200 202 229 231 239 252 243 234 255 271 262
128 131 135 134 135 139 139 140 143 148 157 155 161 162 154 162 170 173 172 170 183 185 187 186 193 191 162 151 148 154 169 177 189 180 174 182 193 201 198 197 201 211 213 212 207 211 215 222 211 207 209 212 208 209 204 207 205 216 215 210 228 249 246 244 255 261 259 246 237 236 225 235 240 240 226 214 232 231 230 243 249 245 240 244 259
133 133 141 146 138 134 127 137 154 162 159 162 157 162 171 170 169 164 168 176 180 185 193 195 195 186 175 181 173 175 180 191 186 186 191 191 193 194 203 208 208 216 221 217 216 215 217 217 212 206 207 211 210 208 213 210 219 221 224 230 225 235 248 250 245 250 252 245 231 225 222 216 227 231 258 251 237 234 242 243 257 257 250 246 249
137 139 142 139 138 143 145 157 154 149 154 158 161 166 162 166 165 169 178 181 184 189 194 201 198 185 176 175 178 185 191 200 181 193 193 192 191 203 210 217 217 215 211 215 212 214 217 218 212 203 209 216 214 220 218 224 223 228 228 227 234 243 248 253 247 241 238 231 222 219 215 211 225 222 238 257 261 239 250 251 246 250 251 249 245
147 148 145 143 151 158 163 161 157 159 163 165 170 159 153 156 163 167 168 174 178 187 199 205 203 162 165 179 181 185 206 210 195 197 197 197 196 200 209 218 218 217 217 219 214 207 208 211 212 211 213 219 216 214 212 223 216 218 222 221 226 229 238 245 246 233 222 219 225 214 212 234 238 240 243 246 244 247 246 255 262 253 252 250 258
139 134 137 144 142 131 135 146 163 169 168 161 150 154 158 157 157 160 165 172 179 190 199 207 187 162 156 161 168 183 212 215 212 208 202 191 192 203 214 219 221 225 230 227 221 209 205 209 218 224 224 226 226 224 222 219 204 207 214 219 225 228 235 238 231 222 208 213 217 229 255 247 240 235 242 245 240 247 260 259 256 261 261 267 261
129 134 137 139 140 146 148 152 154 147 137 135 151 161 164 162 169 175 174 175 176 186 205 210 185 162 157 166 181 196 211 219 224 221 203 193 202 211 215 217 217 221 225 231 224 212 213 216 220 220 224 229 224 223 223 218 207 210 208 204 211 224 226 223 223 222 208 200 206 213 231 236 246 239 242 252 246 241 254 257 255 258 266 262 261
143 145 150 150 152 155 156 159 155 153 154 159 159 168 180 178 177 175 180 175 173 182 198 201 191 173 168 176 188 200 211 215 222 221 215 205 205 214 212 214 214 216 218 223 221 218 219 217 215 219 224 227 225 226 227 225 219 215 212 204 213 224 229 230 236 230 216 201 204 211 225 226 238 234 236 240 246 228 240 257 258 245 245 262 261
148 152 151 152 155 154 151 147 147 158 159 158 160 167 180 189 185 181 178 177 179 189 193 193 182 185 178 175 181 197 207 213 225 224 224 219 212 208 210 214 218 220 222 220 217 220 223 224 221 219 224 227 227 229 231 231 233 232 227 221 220 232 243 241 235 225 224 214 202 200 213 220 234 244 241 236 239 244 239 248 253 257 253 239 249
151 147 148 147 143 146 149 149 158 163 166 171 174 177 182 185 180 176 175 177 185 196 201 198 189 182 176 187 189 194 200 214 221 228 231 231 223 214 210 213 217 225 228 228 224 221 221 223 226 226 229 232 232 238 241 245 249 250 252 242 236 236 241 242 240 235 228 216 204 209 211 216 229 232 239 231 239 242 244 258 254 247 240 235 225
143 146 145 153 155 154 156 160 164 172 179 177 177 179 178 177 178 178 176 183 194 199 195 202 202 179 181 190 189 197 203 205 217 228 230 229 221 218 214 218 221 224 223 231 232 226 225 223 223 225 227 229 230 234 238 241 243 246 246 247 245 244 247 246 237 231 229 223 211 205 204 210 217 232 238 246 248 242 239 248 247 243 235 228 233
151 150 153 152 154 156 156 159 166 167 164 165 171 181 178 170 161 167 174 181 189 194 199 199 202 190 178 177 185 196 189 201 214 223 226 227 219 210 207 215 224 227 222 229 233 228 226 222 223 224 229 230 230 232 232 234 237 239 243 247 253 254 252 249 242 245 237 200 194 193 199 206 216 218 216 209 208 210 225 242 240 241 244 253 250
148 148 155 158 155 149 149 152 163 164 166 174 176 178 180 181 174 169 169 174 183 188 186 190 201 192 188 186 184 184 194 206 210 214 215 225 226 212 200 207 218 227 231 232 236 231 224 221 221 222 225 229 231 231 233 233 234 234 238 240 245 247 245 226 198 175 159 152 150 162 173 195 212 232 238 232 226 232 242 248 256 248 250 246 250